Location: Unspecified
(43.4680°N, 87.1740°E)
Time: 12:02:51
(UTC+00:00)

SAR-Lupe-4 - Pass Details

Date: 17 April 2021
Orbit: 483 x 483 km, 98.2° (Epoch: 13 April)

Event Time Altitude Azimuth Distance (km) Brightness Sun altitude
Rises 13:27:18 0° 13° (NNE) 2,559 7.3 -6.1°
Reaches altitude 10° 13:29:23 10° 13° (NNE) 1,674 6.4 -6.4°
Maximum altitude 13:32:59 89° 275° (W) 490 3.6 -7.0°
Drops below altitude 10° 13:36:33 10° 195° (SSW) 1,659 6.2 -7.6°
Sets 13:38:35 0° 195° (SSW) 2,534 7.1 -8.0°
